Weather History for Minot, ND

Change the Weather History Date:

Wednesday, November 20, 2013

  Actual Average Record
Temperature  
Mean Temperature 14 °F 26 °F  
Max Temperature 23 °F 34 °F 65 °F (1908)
Min Temperature 5 °F 18 °F -19 °F (1921)
Degree Days  
Heating Degree Days 51 39  
Month to date heating degree days 671 677  
Since 1 July heating degree days 1564 1637  
Moisture  
Dew Point 7 °F    
Average Humidity 76    
Maximum Humidity 84    
Minimum Humidity 67    
Precipitation  
Precipitation 0.08 in 0.02 in 1.02 in (1977)
Month to date precipitation 0.15 0.56  
Year to date precipitation 24.81 16.62  
Sea Level Pressure  
Sea Level Pressure 30.13 in    
Wind  
Wind Speed 16 mph (NW)    
Max Wind Speed 23 mph    
Max Gust Speed 29 mph    
Visibility 5 miles    
Events Fog , Snow    
T = Trace of Precipitation, MM = Missing Value Source: NWS Daily Summary

Daily Weather History Graph

Daily Weather History Graph

Search for Another Location

Airport:

Trip Planner

Search our weather history database for the weather conditions in past years. The results will help you decide how hot, cold, wet, or windy it might be!

Date:

Astronomy

Nov. 20, 2013 Rise Set
Actual Time 8:00 AM CST 5:01 PM CST
Civil Twilight 7:25 AM CST 5:35 PM CST
Nautical Twilight 6:47 AM CST 6:14 PM CST
Astronomical Twilight 6:10 AM CST 6:51 PM CST
Moon 7:45 PM CST (11/20) 10:27 AM CST (11/20)
Length of Visible Light 10h 10m
Length of Day
9h 00m
Waning Gibbous, 91% of the Moon is Illuminated
Nov 20
Waning Gibbous
Nov 25
Last Quarter
Dec 2
New
Dec 9
First Quarter
Dec 17
Full

Hourly Weather History & Observations

Time (CST) Temp. Windchill Dew Point Humidity Pressure Visibility Wind Dir Wind Speed Gust Speed Precip Events Conditions
12:54 AM 21.0 °F 7.6 °F 14.0 °F 74% 29.77 in 10.0 mi WNW 15.0 mph 28.8 mph N/A   Overcast
1:54 AM 19.9 °F 4.8 °F 12.0 °F 71% 29.80 in 10.0 mi WNW 18.4 mph 26.5 mph N/A   Overcast
2:54 AM 19.0 °F 2.7 °F 12.0 °F 74% 29.86 in 10.0 mi NW 20.7 mph 26.5 mph N/A   Clear
3:54 AM 18.0 °F 4.2 °F 10.9 °F 74% 29.88 in 10.0 mi WNW 13.8 mph 23.0 mph N/A   Scattered Clouds
4:54 AM 17.1 °F 1.0 °F 10.9 °F 77% 29.91 in 10.0 mi WNW 18.4 mph - N/A   Partly Cloudy
5:54 AM 17.1 °F 2.5 °F 10.0 °F 74% 29.93 in 10.0 mi NW 15.0 mph - N/A   Overcast
6:54 AM 16.0 °F 0.1 °F 9.0 °F 74% 29.98 in 10.0 mi WNW 17.3 mph 23.0 mph N/A   Overcast
7:54 AM 15.1 °F 0.5 °F 9.0 °F 77% 30.01 in 10.0 mi WNW 13.8 mph - N/A   Mostly Cloudy
8:54 AM 15.1 °F 1.1 °F 8.1 °F 74% 30.04 in 10.0 mi NW 12.7 mph - N/A   Mostly Cloudy
9:54 AM 16.0 °F 1.1 °F 8.1 °F 71% 30.07 in 10.0 mi WNW 15.0 mph - N/A   Clear
10:34 AM 16.0 °F 0.6 °F 8.1 °F 71% 30.00 in 10.0 mi NW 16.1 mph - N/A   Mostly Cloudy
10:54 AM 16.0 °F 2.3 °F 8.1 °F 71% 30.09 in 10.0 mi NW 12.7 mph - N/A   Mostly Cloudy
11:54 AM 17.1 °F 3.0 °F 8.1 °F 68% 30.08 in 10.0 mi NW 13.8 mph - N/A   Mostly Cloudy
12:01 PM 18.0 °F 4.2 °F 8.1 °F 65% 29.98 in 10.0 mi NNW 13.8 mph - N/A   Partly Cloudy
12:54 PM 18.0 °F 4.8 °F 8.1 °F 65% 30.07 in 10.0 mi NW 12.7 mph - N/A   Overcast
1:01 PM 17.1 °F 2.0 °F 8.1 °F 68% 29.98 in 10.0 mi NW 16.1 mph - N/A   Overcast
1:54 PM 16.0 °F 0.6 °F 8.1 °F 71% 30.09 in 1.2 mi NNW 16.1 mph - 0.00 in Snow Light Snow
2:04 PM 15.1 °F -0.6 °F 9.0 °F 77% 29.99 in 0.8 mi NNW 16.1 mph - 0.00 in Snow Light Snow
2:54 PM 15.1 °F -1.1 °F 9.0 °F 77% 30.14 in 0.5 mi NNW 17.3 mph - 0.00 in Snow Snow
3:15 PM 14.0 °F -1.4 °F 9.0 °F 80% 30.05 in 0.5 mi NNW 15.0 mph 24.2 mph 0.01 in Snow Snow
3:22 PM 14.0 °F -2.5 °F 9.0 °F 80% 30.05 in 0.2 mi NNW 17.3 mph 24.2 mph 0.01 in Snow Heavy Snow
3:34 PM 14.0 °F -2.0 °F 9.0 °F 80% 30.06 in 0.5 mi NNW 16.1 mph - 0.01 in Snow Snow
3:54 PM 12.9 °F -2.2 °F 8.1 °F 81% 30.17 in 0.5 mi NNW 13.8 mph - 0.02 in Snow Snow
4:10 PM 12.0 °F -3.4 °F 8.1 °F 84% 30.08 in 0.2 mi NW 13.8 mph - 0.01 in Fog , Snow Heavy Snow
4:27 PM 12.0 °F -5.6 °F 8.1 °F 84% 30.10 in 0.5 mi NW 18.4 mph 23.0 mph 0.03 in Fog Light Freezing Fog
4:54 PM 12.0 °F -4.5 °F 8.1 °F 84% 30.22 in 0.5 mi NW 16.1 mph - 0.05 in Fog Light Freezing Fog
5:29 PM 10.9 °F -5.4 °F 7.0 °F 84% 30.13 in 1.0 mi NW 15.0 mph - 0.01 in   Mist
5:49 PM 10.4 °F -6.0 °F 6.8 °F 85% 30.15 in 1.5 mi NW 15.0 mph - 0.01 in   Overcast
5:54 PM 10.9 °F -4.7 °F 7.0 °F 84% 30.27 in 1.5 mi NW 13.8 mph - 0.01 in   Overcast
6:06 PM 10.9 °F -5.4 °F 6.1 °F 81% 30.16 in 2.0 mi NNW 15.0 mph - N/A   Haze
6:31 PM 10.9 °F -4.1 °F 6.1 °F 81% 30.18 in 1.5 mi NW 12.7 mph - N/A   Haze
6:54 PM 10.9 °F -4.7 °F 6.1 °F 81% 30.30 in 3.0 mi NW 13.8 mph - N/A   Haze
7:09 PM 10.9 °F -5.9 °F 6.1 °F 81% 30.20 in 2.0 mi NW 16.1 mph - N/A   Haze
7:16 PM 10.9 °F -7.0 °F 6.1 °F 81% 30.20 in 1.5 mi NW 18.4 mph - N/A   Haze
7:35 PM 10.9 °F -5.9 °F 6.1 °F 81% 30.21 in 2.5 mi NW 16.1 mph - N/A   Haze
7:51 PM 10.4 °F -7.7 °F 6.8 °F 85% 30.23 in 1.2 mi WNW 18.4 mph - N/A   Overcast
7:54 PM 10.0 °F -7.6 °F 5.0 °F 80% 30.35 in 1.2 mi NW 17.3 mph - N/A   Haze
8:06 PM 10.0 °F -7.6 °F 5.0 °F 80% 30.23 in 2.0 mi WNW 17.3 mph 26.5 mph N/A   Haze
8:17 PM 10.0 °F -7.6 °F 5.0 °F 80% 30.25 in 1.8 mi WNW 17.3 mph 26.5 mph N/A   Haze
8:35 PM 9.0 °F -8.5 °F 5.0 °F 84% 30.25 in 2.5 mi WNW 16.1 mph 24.2 mph N/A   Overcast
8:43 PM 9.0 °F -9.0 °F 3.9 °F 80% 30.26 in 5.0 mi NW 17.3 mph - N/A   Haze
8:54 PM 9.0 °F -10.0 °F 3.9 °F 80% 30.38 in 10.0 mi NW 19.6 mph 25.3 mph N/A   Scattered Clouds
9:18 PM 9.0 °F -10.5 °F 3.9 °F 80% 30.28 in 6.0 mi WNW 20.7 mph 28.8 mph N/A   Haze
9:38 PM 8.1 °F -11.7 °F 3.0 °F 80% 30.29 in 6.0 mi WNW 20.7 mph 27.6 mph N/A   Haze
9:54 PM 8.1 °F -10.2 °F 1.9 °F 76% 30.42 in 10.0 mi NW 17.3 mph - N/A   Mostly Cloudy
10:33 PM 7.0 °F -12.1 °F 1.0 °F 77% 30.32 in 10.0 mi WNW 18.4 mph 26.5 mph N/A   Scattered Clouds
10:54 PM 7.0 °F -12.1 °F 1.9 °F 80% 30.46 in 10.0 mi WNW 18.4 mph - N/A   Mostly Cloudy
11:54 PM 5.0 °F -14.7 °F -0.9 °F 76% 30.48 in 10.0 mi WNW 18.4 mph 26.5 mph N/A   Overcast